Burlington, CO

12:48 PM MDT on May 29, 2017 (GMT -0600)
Kit Carson County

Weather History for KITR - December, 2012

Change the Weather History Date:

Monday, December 31, 2012

  Actual Average Record
Temperature  
Mean Temperature 17 °F 28 °F  
Max Temperature 22 °F 41 °F 66 °F (1920)
Min Temperature 12 °F 16 °F -14 °F (1923)
Degree Days  
Heating Degree Days 48    
Moisture  
Dew Point 15 °F    
Average Humidity 88    
Maximum Humidity 100    
Minimum Humidity 74    
Precipitation  
Precipitation T in 0.01 in 0.40 in (1924)
Month to date precipitation 0.74 0.43  
Year to date precipitation 11.30 17.46  
Sea Level Pressure  
Sea Level Pressure 30.06 in    
Wind  
Wind Speed 10 mph (NNE)    
Max Wind Speed 16 mph    
Max Gust Speed -    
Visibility 4 miles    
Events Fog , Snow    
T = Trace of Precipitation, MM = Missing Value Source: NWS Daily Summary

Daily Weather History Graph

Daily Weather History Graph

Search for Another Location

Airport or City:

Trip Planner

Search our weather history database for the weather conditions in past years. The results will help you decide how hot, cold, wet, or windy it might be!

Date:

Astronomy

Dec. 31, 2012 Rise Set
Actual Time 7:08 AM MST 4:36 PM MST
Civil Twilight 6:38 AM MST 5:06 PM MST
Nautical Twilight 6:05 AM MST 5:39 PM MST
Astronomical Twilight 5:32 AM MST 6:12 PM MST
Moon 8:07 PM MST (12/31) 8:52 AM MST (12/31)
Length of Visible Light 10h 27m
Length of Day
9h 27m
Waning Gibbous, 90% of the Moon is Illuminated
Dec 31
Waning Gibbous
Jan 4
Last Quarter
Jan 11
New
Jan 18
First Quarter
Jan 26
Full

Hourly Weather History & Observations

Time (MST) Temp. Windchill Dew Point Humidity Pressure Visibility Wind Dir Wind Speed Gust Speed Precip Events Conditions
12:53 AM 18.0 °F 6.1 °F 12.0 °F 78% 30.07 in 10.0 mi NNE 10.4 mph - N/A   Clear
1:53 AM 18.0 °F 5.4 °F 10.9 °F 74% 30.07 in 10.0 mi NNE 11.5 mph - N/A   Clear
2:53 AM 16.0 °F 2.3 °F 12.0 °F 84% 30.08 in 10.0 mi NNE 12.7 mph - N/A   Scattered Clouds
3:13 AM 15.8 °F 5.1 °F 12.2 °F 86% 30.00 in 10.0 mi NNE 8.1 mph - N/A   Mostly Cloudy
3:21 AM 17.6 °F 6.4 °F 12.2 °F 79% 30.00 in 10.0 mi NE 9.2 mph - N/A   Overcast
3:53 AM 17.1 °F 4.3 °F 14.0 °F 88% 30.08 in 10.0 mi NNE 11.5 mph - N/A   Overcast
4:53 AM 17.1 °F 3.0 °F 14.0 °F 88% 30.05 in 10.0 mi North 13.8 mph - N/A   Overcast
5:14 AM 15.8 °F 2.1 °F 14.0 °F 93% 29.95 in 9.0 mi North 12.7 mph - N/A   Overcast
5:28 AM 15.8 °F 3.4 °F 15.8 °F 100% 29.96 in 2.0 mi North 10.4 mph - N/A   Overcast
5:53 AM 17.1 °F 5.0 °F 15.1 °F 92% 30.07 in 0.5 mi North 10.4 mph - N/A Fog Light Freezing Fog
6:53 AM 17.1 °F 5.8 °F 15.1 °F 92% 30.07 in 0.5 mi North 9.2 mph - N/A Fog Light Freezing Fog
7:53 AM 18.0 °F 6.1 °F 16.0 °F 92% 30.09 in 0.5 mi North 10.4 mph - N/A Fog Light Freezing Fog
8:53 AM 19.0 °F 6.1 °F 17.1 °F 92% 30.13 in 0.5 mi NNE 12.7 mph - N/A Fog Light Freezing Fog
9:53 AM 19.0 °F 5.0 °F 18.0 °F 96% 30.13 in 0.2 mi NNE 15.0 mph - N/A Fog Light Freezing Fog
10:49 AM 19.4 °F 7.2 °F 17.6 °F 93% 30.00 in 1.2 mi NNE 11.5 mph - N/A   Overcast
10:53 AM 19.9 °F 8.6 °F 18.0 °F 92% 30.11 in 1.2 mi North 10.4 mph - N/A   Overcast
11:02 AM 19.4 °F 6.6 °F 17.6 °F 93% 30.00 in 0.8 mi North 12.7 mph - 0.00 in Snow Light Snow
11:12 AM 19.4 °F 6.6 °F 17.6 °F 93% 29.99 in 1.0 mi NNE 12.7 mph - 0.00 in Snow Light Snow
11:24 AM 19.4 °F 6.6 °F 17.6 °F 93% 29.99 in 1.0 mi North 12.7 mph - 0.00 in Snow Light Snow
11:29 AM 19.4 °F 6.6 °F 17.6 °F 93% 29.99 in 0.8 mi North 12.7 mph - 0.00 in Snow Light Snow
11:53 AM 21.0 °F 8.1 °F 18.0 °F 88% 30.09 in 0.8 mi North 13.8 mph - 0.00 in Snow Light Snow
11:58 AM 21.2 °F 8.9 °F 17.6 °F 86% 29.97 in 1.0 mi North 12.7 mph - 0.00 in Snow Light Snow
12:09 PM 21.2 °F 7.8 °F 17.6 °F 86% 29.97 in 0.8 mi North 15.0 mph - 0.00 in Snow Light Snow
12:16 PM 21.2 °F 9.5 °F 17.6 °F 86% 29.96 in 1.0 mi NNE 11.5 mph - 0.00 in Snow Light Snow
12:25 PM 21.2 °F 8.3 °F 17.6 °F 86% 29.96 in 1.0 mi NNE 13.8 mph - 0.00 in Snow Light Snow
12:50 PM 21.2 °F 7.3 °F 17.6 °F 86% 29.95 in 1.2 mi NNE 16.1 mph - 0.00 in Snow Light Snow
12:53 PM 21.0 °F 7.1 °F 17.1 °F 85% 30.07 in 1.2 mi NNE 16.1 mph - 0.00 in Snow Light Snow
1:53 PM 21.0 °F 8.1 °F 18.0 °F 88% 30.08 in 1.2 mi North 13.8 mph - 0.00 in Snow Light Snow
2:39 PM 21.2 °F 9.5 °F 17.6 °F 86% 29.96 in 2.0 mi North 11.5 mph - 0.00 in Snow Light Snow
2:53 PM 21.0 °F 8.1 °F 17.1 °F 85% 30.10 in 2.0 mi North 13.8 mph - 0.00 in Snow Light Snow
3:15 PM 21.2 °F 8.9 °F 17.6 °F 86% 29.98 in 4.0 mi North 12.7 mph - 0.00 in Snow Light Snow
3:25 PM 21.2 °F 9.5 °F 17.6 °F 86% 29.98 in 4.0 mi NNE 11.5 mph - 0.00 in Snow Light Snow
3:35 PM 21.2 °F 9.5 °F 17.6 °F 86% 29.98 in 5.0 mi NNE 11.5 mph - 0.00 in Snow Light Snow
3:50 PM 19.4 °F 7.9 °F 17.6 °F 93% 29.99 in 9.0 mi NNE 10.4 mph - 0.00 in   Overcast
3:53 PM 19.9 °F 8.6 °F 17.1 °F 89% 30.12 in 10.0 mi NNE 10.4 mph - 0.00 in   Overcast
4:08 PM 19.4 °F 7.9 °F 15.8 °F 86% 29.98 in 10.0 mi NNE 10.4 mph - N/A   Overcast
4:46 PM 19.4 °F 11.5 °F 15.8 °F 86% 30.00 in 10.0 mi North 5.8 mph - N/A   Mostly Cloudy
4:53 PM 18.0 °F 8.7 °F 16.0 °F 92% 30.14 in 10.0 mi NNE 6.9 mph - N/A   Overcast
5:53 PM 18.0 °F 11.1 °F 15.1 °F 88% 30.15 in 9.0 mi NNE 4.6 mph - N/A   Overcast
6:27 PM 17.6 °F 10.7 °F 14.0 °F 86% 30.02 in 7.0 mi North 4.6 mph - 0.00 in Snow Light Snow
6:53 PM 18.0 °F 12.7 °F 15.1 °F 88% 30.16 in 8.0 mi North 3.5 mph - 0.00 in   Overcast
7:17 PM 15.8 °F 10.2 °F 12.2 °F 86% 30.03 in 5.0 mi NW 3.5 mph - N/A   Overcast
7:53 PM 15.1 °F 9.4 °F 12.0 °F 88% 30.19 in 6.0 mi North 3.5 mph - N/A   Overcast
8:43 PM 17.6 °F - 14.0 °F 86% 30.06 in 1.8 mi Calm Calm - 0.00 in Snow Light Snow
8:51 PM 17.6 °F - 14.0 °F 86% 30.06 in 2.0 mi Calm Calm - 0.00 in Snow Light Snow
8:53 PM 17.1 °F - 14.0 °F 88% 30.19 in 2.5 mi Calm Calm - 0.00 in Snow Light Snow
9:18 PM 15.8 °F - 12.2 °F 86% 30.06 in 3.0 mi Calm Calm - 0.00 in Snow Light Snow
9:21 PM 15.8 °F - 12.2 °F 86% 30.06 in 2.5 mi Calm Calm - 0.00 in Snow Light Snow
9:33 PM 15.8 °F - 12.2 °F 86% 30.07 in 1.8 mi Calm Calm - 0.00 in Snow Light Snow
9:46 PM 15.8 °F - 12.2 °F 86% 30.07 in 3.0 mi Calm Calm - 0.00 in   Overcast
9:53 PM 15.1 °F - 12.9 °F 91% 30.22 in 4.0 mi Calm Calm - 0.00 in   Overcast
10:35 PM 15.8 °F - 12.2 °F 86% 30.08 in 4.0 mi Calm Calm - N/A   Overcast
10:53 PM 14.0 °F - 10.9 °F 88% 30.22 in 9.0 mi Calm Calm - N/A   Overcast
11:53 PM 12.9 °F - 10.0 °F 88% 30.22 in 4.0 mi Calm Calm - N/A   Overcast